Location: Antioch Baptist Church
(32.6696°N, 85.7327°W)
Time: 20:56:00
(UTC+00:00)

Landsat 7 - Pass Details

Date: 14 July 2020
Orbit: 701 x 703 km, 98.1° (Epoch: 13 August)

Event Time Altitude Azimuth Distance (km) Brightness Sun altitude
Exits shadow 03:07:34 62° 183° (S) 792 3.8 -23.4°
Maximum altitude 03:08:21 82° 257° (WSW) 714 3.8 -23.5°
Drops below altitude 10° 03:13:08 10° 346° (NNW) 2,173 7.2 -24.2°
Sets 03:15:24 0° 347° (NNW) 3,095 8.2 -24.5°
